SCP
0 0 -0 0 -0 -0 -0 0 0 0 0 0 0 0 0 0 0 0 0 -0 -0 -0 -0 -0 0 -0 -0 -0 -0 -0 -0 -0 -0 -0 -0 -0 -0 -0 -0 -0 -0 -0 -0 -0 -0 -0 -0 -0 -0
0 -0 -0 0 -0 -0 -0 0 0 0 0 0 0 0 0 0 0 0 0 -0 -0 0 -0 -0 -0 -0 -0 -0 -0 -0 -0 -0 -0 -0 -0 -0 -0 -0 -0 -0 -0 -0 -0 -0 -0 -0 -0 -0 -0
0 0 0 0 -0 -0 -0 0 0 0 0 0 0 0 0 0 0 0 0 -0 0 0 0 -0 0 0 0 -0 -0 -0 -0 -0 -0 -0 -0 -0 -0 -0 -0 -0 -0 -0 -0 -0 -0 -0 -0 -0 -0
0 0 0 0 -0 0 0 0 0 0 0 0 0 0 0 0 0 0 0 0 0 0 0 0 -0 -0 -0 -0 -0 0 0 -0 -0 -0 -0 -0 -0 -0 -0 -0 -0 -0 -0 -0 -0 -0 -0 -0 -0
0 0 0 0 0 0 0 0 0 0 0 0 0 0 0 0 -0 0 -0 0 0 0 0 0 0 0 -0 -0 -0 -0 -0 -0 -0 -0 -0 -0 -0 -0 -0 -0 -0 -0 -0 -0 -0 -0 -0 -0 -0
0 0 0 -0 0 0 -0 -0 0 0 0 0 0 0 0 -0 0 0 -0 0 0 0 0 0 0 0 0 0 0 0 -0 -0 -0 -0 -0 -0 -0 -0 -0 -0 -0 -0 -0 -0 -0 -0 -0 -0 -0
0 0 0 0 0 0 0 0 0 0 0 0 -0 0 0 -0 0 0 -0 0 0 0 0 0 0 0 -0 -0 -0 -0 -0 -0 -0 -0 -0 -0 -0 -0 -0 -0 -0 -0 -0 -0 -0 -0 -0 -0 -0
0 0 0 0 -0 0 0 0 0 0 0 -0 0 0 0 -0 -0 -0 -0 -0 -0 0 0 0 0 0 0 -0 -0 -0 -0 -0 -0 -0 -0 -0 -0 -0 -0 -0 -0 -0 -0 -0 -0 -0 -0 -0 -0
0 0 0 0 0 0 -0 -0 -0 0 -0 0 0 -0 0 -0 -0 -0 -0 0 0 0 -0 -0 -0 -0 0 -0 0 -0 -0 -0 -0 -0 -0 -0 0 0 0 0 -0 -0 -0 -0 -0 -0 -0 -0 0
0 0 0 0 0 0 -0 -0 -0 -0 0 0 -0 0 -0 -0 -0 -0 -0 -0 -0 -0 -0 -0 -0 -0 -0 -0 -0 -0 -0 -0 0 0 -0 0 0 0 0 0 0 0 0 -0 -0 0 0 0 0
0 0 0 0 0 0 0 0 0 -0 0 -0 -0 -0 -0 -0 -0 -0 -0 -0 -0 -0 -0 -0 -0 -0 -0 -0 -0 0 0 0 0 0 0 0 0 0 0 0 0 0 0 0 0 0 0 0 0
0 0 0 0 0 0 0 0 0 0 -0 0 -0 -0 -0 -0 -0 -0 -0 -0 -0 -0 -0 -0 -0 -0 -0 -0 -0 -0 0 0 0 0 0 0 0 0 0 0 0 0 0 0 0 0 0 0 0
0 0 0 0 0 0 0 0 0 0 -0 0 0 -0 -0 -0 -0 -0 -0 -0 -0 -0 -0 -0 -0 -0 -0 -0 -0 -0 -0 0 0 0 0 0 0 0 0 0 0 0 0 0 0 0 0 0 0
0 0 0 0 0 0 0 0 0 0 0 0 0 -0 -0 -0 -0 0 0 -0 -0 -0 -0 -0 -0 -0 -0 -0 -0 -0 -0 0 0 0 0 0 0 0 0 0 0 0 0 0 0 0 0 0 0
0 0 0 0 0 0 0 0 0 0 0 0 0 0 0 0 0 -0 -0 -0 -0 -0 -0 -0 -0 -0 -0 -0 -0 -0 0 0 0 0 0 0 0 0 0 0 0 0 0 0 0 0 0 0 0
0 0 0 0 0 0 0 0 0 0 0 0 0 0 0 0 0 0 0 0 0 0 0 -0 -0 -0 -0 -0 -0 0 0 0 0 0 0 0 0 0 0 0 0 0 0 0 0 0 0 0 0
0 0 0 0 0 0 0 0 0 0 0 0 0 0 0 0 0 0 0 0 0 0 0 0 0 0 0 0 0 0 0 0 0 0 0 0 0 0 0 0 0 0 0 0 0 0 0 0 0
0 0 0 0 0 0 0 0 0 0 0 0 0 0 0 0 0 0 0 0 0 0 0 0 0 0 0 0 0 0 0 0 0 0 0 0 0 0 0 0 0 0 0 0 0 0 0 0 0
0 0 0 0 0 0 0 0 0 0 0 0 0 0 0 0 0 0 0 0 0 0 0 0 0 0 0 0 0 0 0 0 0 0 0 0 0 0 0 0 0 0 0 0 0 0 0 0 0
0 0 0 0 0 0 0 0 0 0 0 0 0 0 0 0 0 0 0 0 0 0 0 0 0 0 0 0 0 0 0 0 0 0 0 0 0 0 0 0 0 0 0 0 0 0 0 0 0
0 0 0 0 0 0 0 0 0 0 0 0 0 0 0 0 0 0 0 0 0 0 0 0 0 0 0 0 0 0 0 0 0 0 0 0 0 0 0 0 0 0 0 0 0 0 0 0 0
0 0 0 0 0 0 0 0 0 0 0 0 0 0 0 0 0 0 0 0 0 0 0 0 0 0 0 0 0 0 0 0 0 0 0 0 0 0 0 0 0 0 0 0 0 0 0 0 0
0 0 0 0 0 0 0 0 -0 0 0 0 0 0 0 0 0 0 0 0 0 0 0 0 0 0 0 0 0 0 0 0 0 0 0 0 0 0 0 0 0 0 0 0 0 0 0 0 0
0 0 0 0 0 0 0 0 0 -0 0 0 0 0 0 0 0 0 0 0 0 0 0 0 0 0 0 0 0 0 0 0 0 0 0 0 0 0 0 0 0 0 0 0 0 0 0 0 0
0 0 0 0 0 0 0 0 0 0 0 0 0 0 0 0 0 0 0 0 0 0 0 0 0 0 0 0 0 0 0 0 0 0 0 0 0 0 0 0 0 0 0 0 0 0 0 0 0
0 0 0 0 0 0 0 0 0 0 0 0 0 0 0 0 0 0 0 0 0 0 0 0 0 0 0 0 0 0 0 0 0 0 0 0 0 0 0 0 0 0 0 0 0 0 0 0 0
0 0 0 0 0 0 0 0 0 0 0 0 0 0 0 0 0 0 0 0 0 0 0 0 0 0 0 0 0 0 0 0 0 0 0 0 0 0 0 0 0 0 0 0 0 0 0 0 0
0 0 0 0 0 0 0 0 0 0 0 0 0 0 0 0 0 0 0 0 0 0 0 0 0 0 0 0 0 0 0 0 0 0 0 0 0 0 0 0 0 0 0 0 0 0 0 0 0
0 0 0 0 0 0 0 0 0 0 0 0 0 0 0 0 0 0 0 0 0 0 0 0 0 0 0 0 0 0 0 0 0 0 0 0 0 0 0 0 0 0 0 0 0 0 0 0 0
0 0 0 0 0 0 0 0 0 0 0 0 0 0 0 0 0 0 0 0 0 0 0 0 0 0 0 0 0 0 0 0 0 0 0 0 0 0 0 0 0 0 0 0 0 0 0 0 0
Wind_Speed_500mb
16 16 16 13 7 10 1 7 1 6 6 6 11 9 11 7 7 6 31 37 46 46 44 38 28 21 21 21 21 23 25 23 23 26 32 23 16 10 13 16 18 20 24 29 28 26 25 27 26
14 13 11 2 9 6 8 7 11 7 21 37 22 17 5 2 5 17 49 47 44 41 46 39 30 22 21 22 24 25 26 25 24 25 29 22 14 10 15 18 19 21 26 28 29 28 27 27 28
13 8 2 8 7 7 8 6 10 7 27 8 8 10 7 6 8 44 38 55 48 43 40 34 26 23 23 23 23 25 25 25 23 24 28 21 13 13 15 17 19 22 25 24 25 26 25 24 25
9 5 8 8 5 6 8 10 9 12 5 6 17 11 8 5 19 43 46 54 50 43 38 33 28 24 22 22 22 21 22 22 22 21 22 21 14 12 14 16 17 21 22 27 25 26 24 25 29
11 4 7 6 5 6 4 17 20 5 8 9 10 8 7 24 15 33 45 53 50 45 37 34 29 24 20 18 18 19 19 19 20 19 18 13 11 10 10 13 14 17 23 23 26 25 24 21 25
5 3 8 4 6 6 2 20 12 7 8 9 9 15 11 24 22 32 39 46 47 43 37 33 30 26 22 19 18 17 18 17 17 16 15 12 10 9 9 11 12 16 20 19 22 24 24 19 21
11 7 10 7 7 3 10 18 11 13 10 7 21 9 8 31 26 28 35 41 42 41 37 35 32 30 24 21 18 16 15 15 14 13 12 10 8 7 7 9 11 15 16 18 18 16 14 14 18
6 10 8 5 10 7 12 20 17 20 11 11 19 8 8 34 38 30 35 33 38 39 37 40 38 36 33 28 21 17 16 15 13 12 9 8 6 5 6 8 10 12 14 15 14 13 13 14 14
6 9 5 9 10 6 21 7 12 10 14 15 17 10 8 40 43 45 40 38 38 37 38 39 39 39 37 32 30 26 22 19 17 15 11 7 5 5 6 8 10 12 13 14 13 11 10 9 9
8 8 17 6 7 8 15 7 18 10 13 13 16 17 16 44 52 55 57 54 48 43 43 39 38 40 40 37 33 29 27 25 22 19 15 11 10 8 9 11 13 13 14 14 13 13 11 9 7
8 9 11 7 6 12 13 3 13 14 6 22 32 29 30 47 55 59 61 58 52 49 44 45 41 39 44 43 40 38 35 32 28 25 21 18 15 13 13 14 15 14 13 12 12 12 11 9 9
9 5 11 12 8 8 11 6 6 23 16 9 29 28 36 47 56 60 62 62 58 57 52 45 43 44 45 48 48 45 41 37 34 30 28 25 21 18 16 17 16 15 12 13 13 12 10 10 10
6 9 9 12 8 5 8 7 12 24 32 15 11 32 38 44 50 55 58 60 59 58 57 55 47 48 46 51 52 49 45 41 37 37 34 31 28 22 20 22 21 20 18 17 15 12 10 10 10
12 11 7 10 8 6 5 6 3 3 16 31 27 25 34 44 46 52 61 62 65 63 61 59 58 53 48 49 53 51 46 42 42 43 41 38 35 31 29 27 27 27 26 24 21 16 12 11 12
12 7 6 8 9 6 6 8 16 20 17 13 34 34 38 46 49 54 51 56 58 63 64 65 64 61 59 52 50 47 51 51 52 48 45 44 44 40 36 36 34 32 32 32 31 26 23 21 20
8 9 4 5 8 3 8 15 8 2 10 18 23 26 36 45 50 52 56 57 57 63 69 67 69 71 69 62 57 57 58 58 58 56 55 53 52 47 45 44 41 41 41 41 40 35 27 32 32
12 6 6 10 13 4 5 11 8 6 5 11 11 20 33 40 49 53 56 62 60 61 64 70 73 75 76 70 66 65 61 62 63 63 60 62 59 56 52 46 47 50 52 51 49 47 46 41 40
11 6 5 7 8 5 6 18 18 24 29 32 34 31 39 47 51 47 47 50 57 59 63 66 72 73 77 76 72 73 71 70 65 68 69 66 64 63 62 56 57 53 66 59 59 57 56 52 48
11 7 8 4 1 5 10 12 23 47 40 46 48 50 52 57 56 57 53 52 53 59 65 65 69 73 78 84 81 83 82 80 77 74 71 69 68 68 68 65 64 65 71 62 65 67 64 61 59
5 6 3 4 2 5 6 18 20 30 40 52 60 59 48 39 37 39 46 52 54 51 54 64 69 67 72 80 81 85 82 85 82 78 77 73 76 73 73 72 69 74 70 81 80 73 74 70 71
7 9 7 10 3 6 8 16 13 11 20 30 35 32 38 41 39 24 18 18 33 47 51 56 60 69 72 73 81 87 93 94 93 92 89 82 73 78 80 79 79 74 76 77 88 80 80 83 82
10 13 11 7 6 6 4 9 12 10 21 14 37 20 17 15 15 16 12 6 10 20 34 40 50 64 74 77 83 83 84 90 85 90 90 88 81 77 85 85 86 85 83 84 83 90 92 96 83
11 9 8 6 7 6 7 3 14 7 12 11 24 24 26 29 25 21 17 15 11 9 11 23 35 46 59 75 82 83 84 85 88 87 88 86 83 81 85 84 91 93 89 84 88 83 93 103 99
17 12 13 9 6 4 11 10 11 6 5 6 11 21 24 27 28 26 22 20 20 22 23 26 26 25 30 45 64 75 80 81 83 82 83 82 79 74 74 81 89 92 90 93 90 91 92 97 99
7 12 3 6 5 10 2 6 17 10 3 5 9 23 32 41 49 53 53 49 40 33 29 25 20 18 19 25 37 51 62 70 75 77 78 75 77 76 72 70 79 87 91 95 97 101 99 98 102
13 14 11 14 8 6 5 10 10 5 6 14 20 27 42 49 46 47 48 50 51 55 53 40 30 22 19 23 27 32 42 53 61 67 70 72 76 73 67 66 68 76 85 92 93 96 100 101 104
11 8 10 13 6 7 7 11 12 6 13 19 37 52 50 48 48 37 39 44 45 45 49 50 50 39 26 20 21 25 32 41 48 52 55 60 63 62 62 62 63 67 72 78 86 94 100 103 106
9 15 6 5 5 6 6 6 10 13 15 10 28 38 43 48 45 36 29 35 34 35 38 38 39 39 39 28 23 20 24 27 31 35 41 47 51 53 55 58 61 64 68 74 80 89 95 101 105
5 6 7 9 9 11 3 10 13 15 15 16 24 33 34 35 34 37 34 30 30 32 34 32 29 25 25 26 26 23 26 36 39 43 46 48 49 52 56 58 60 64 68 70 76 82 86 93 94
5 14 13 10 9 4 6 11 4 18 25 25 12 19 26 23 22 20 21 31 34 39 38 37 31 24 22 24 27 30 36 42 45 46 50 54 58 58 62 65 70 72 72 72 75 78 79 83 85
Wind_Direction_500mb
279 286 308 321 49 65 339 249 238 169 105 139 156 159 172 101 157 204 146 155 159 160 161 153 154 158 126 120 121 116 110 115 117 120 121 118 121 103 73 71 85 95 102 103 99 97 94 95 93
248 261 306 15 84 75 266 258 185 202 127 120 107 114 82 116 146 150 149 156 157 160 160 157 160 139 129 129 119 115 115 117 118 128 134 127 130 106 80 82 97 105 110 106 100 97 95 83 81
222 236 244 91 110 168 197 217 199 140 142 150 117 81 101 153 180 160 156 157 159 163 168 164 159 151 145 130 127 120 118 117 120 127 135 138 133 108 93 93 108 115 115 108 107 102 95 84 82
195 176 67 86 156 238 211 187 196 138 116 160 140 83 109 169 158 162 159 164 164 166 168 171 170 163 148 137 126 119 114 113 114 116 130 145 126 106 92 99 116 124 122 111 116 112 97 90 92
182 144 64 67 297 288 250 158 164 131 139 146 156 168 107 139 154 170 167 169 169 172 173 175 176 172 155 146 136 132 127 122 121 120 123 129 113 108 97 106 123 136 127 131 121 116 108 94 103
146 115 67 140 247 326 269 164 162 144 154 150 119 133 143 170 166 168 171 172 177 182 179 180 183 180 176 167 157 148 142 137 132 124 121 117 119 120 119 123 136 145 148 140 145 140 130 122 119
142 89 167 165 206 195 208 184 183 161 155 197 150 130 186 190 178 171 174 177 181 193 194 191 190 189 190 186 176 167 161 153 148 140 127 112 114 122 131 142 153 158 159 153 159 154 147 132 131
160 95 112 199 194 218 177 165 179 167 189 161 179 193 201 185 182 177 177 180 188 194 200 197 196 197 198 196 191 188 186 180 175 164 154 133 119 130 157 167 168 174 172 172 176 174 158 151 150
145 68 153 198 156 217 158 147 166 190 158 185 197 245 247 179 180 178 183 186 192 200 203 203 205 204 204 203 203 198 196 194 193 193 186 174 167 169 178 178 180 185 182 185 182 182 172 171 174
96 115 203 206 186 180 168 152 160 166 168 211 212 216 193 184 185 185 187 190 201 205 204 210 211 213 210 211 213 211 210 209 208 207 206 201 198 194 191 189 185 189 185 191 188 190 190 192 201
135 178 191 181 137 154 157 193 177 155 241 219 218 213 191 189 193 197 198 203 205 207 214 217 219 220 222 220 219 219 218 217 214 215 216 215 212 209 205 200 196 195 200 203 196 194 196 205 217
122 183 167 158 146 146 159 160 225 208 213 246 240 231 207 197 200 205 207 211 212 213 218 221 225 227 232 229 228 227 225 223 222 224 225 225 222 219 217 205 206 207 210 206 200 199 205 216 224
143 177 159 157 179 188 189 214 238 245 236 224 230 214 216 214 213 214 216 218 221 220 221 224 228 228 231 229 231 232 232 233 234 233 234 233 228 230 222 213 212 213 210 211 209 212 222 223 235
183 147 152 169 173 206 189 237 253 289 233 222 229 223 223 226 228 222 219 223 224 226 227 225 228 233 235 236 234 235 236 239 241 243 242 241 234 232 229 226 221 219 216 213 212 220 232 245 249
123 105 8 216 178 200 171 262 236 255 261 236 234 237 236 235 233 235 236 231 230 230 230 229 231 234 237 242 239 234 231 233 235 244 246 245 240 236 235 234 232 230 226 221 219 225 228 242 254
66 47 117 301 146 155 127 266 272 285 252 246 237 240 239 238 241 242 240 241 239 235 235 233 234 235 238 243 241 236 236 237 237 242 247 244 240 240 240 240 240 239 234 233 231 233 245 244 243
15 196 183 305 197 119 127 268 263 191 5 307 273 261 255 254 250 246 246 243 242 241 240 239 236 238 239 243 243 247 242 239 243 243 247 251 246 243 243 246 246 243 240 237 235 239 242 248 248
195 204 217 240 215 148 160 259 284 266 288 284 283 268 258 257 259 256 255 252 247 244 243 242 242 241 239 242 247 245 245 244 243 243 245 251 254 248 247 247 248 247 243 244 240 242 244 250 247
148 156 173 235 165 148 237 267 278 285 288 279 275 274 270 269 273 267 260 256 252 247 244 242 240 241 241 240 240 241 243 244 245 246 250 248 252 256 250 250 251 247 248 261 244 247 242 244 242
135 122 249 309 8 156 348 277 260 269 267 269 276 280 282 285 290 278 263 253 251 252 250 246 244 242 242 243 245 246 247 247 250 254 254 250 251 251 253 253 255 251 251 248 248 247 244 243 244
200 171 191 210 37 31 359 305 319 292 265 273 269 285 296 291 294 299 293 275 252 252 253 252 253 250 247 246 246 246 245 248 247 249 251 252 253 253 254 255 254 253 257 258 256 260 245 254 247
173 201 154 162 97 226 360 278 303 299 295 310 312 313 353 39 46 36 19 341 296 269 257 257 255 255 253 249 246 248 251 251 258 257 256 257 254 252 257 256 259 256 257 257 261 259 257 254 255
198 115 131 94 98 84 316 54 272 341 315 332 28 64 63 56 48 44 38 38 22 358 284 267 260 258 255 252 251 251 252 257 258 260 260 260 258 257 255 257 259 256 257 262 260 260 260 256 253
143 84 54 56 89 307 225 156 284 223 188 1 8 38 45 46 43 34 15 350 339 329 313 299 292 283 270 259 255 255 255 257 262 265 266 267 267 264 260 258 258 260 264 262 264 264 265 263 262
91 87 359 347 2 223 94 104 243 262 299 294 337 61 64 64 66 61 52 44 33 18 6 353 342 321 295 276 265 262 261 261 263 267 270 272 271 269 269 263 258 260 263 265 266 266 267 265 265
186 158 160 196 197 250 111 227 243 121 92 88 95 74 81 58 45 46 47 43 40 40 36 26 4 341 309 286 275 266 263 264 267 269 271 271 271 272 273 269 264 261 260 261 265 267 269 268 268
190 187 157 106 29 62 222 286 326 91 80 80 84 70 54 41 32 33 44 39 33 31 28 27 25 15 352 324 302 291 281 277 276 277 275 272 271 271 271 268 264 262 261 262 262 262 263 265 267
158 156 86 8 146 252 272 254 227 149 136 119 68 52 26 16 12 16 29 21 23 22 17 15 14 12 11 16 8 357 353 333 312 297 286 280 277 275 272 269 265 263 260 258 258 260 264 265 266
136 171 61 122 153 173 186 252 228 134 147 114 83 35 23 28 26 19 14 19 359 348 346 349 349 351 345 330 319 310 323 327 323 314 308 302 294 289 282 277 271 267 264 261 261 261 262 264 268
181 185 154 147 221 232 153 256 58 133 135 105 86 28 24 22 15 7 347 336 335 342 345 344 339 328 316 307 302 300 306 307 304 302 303 302 301 294 287 282 278 274 271 269 267 267 266 266 269
Wind_Speed_850mb
16 16 16 13 7 10 1 7 1 6 6 6 11 9 11 7 7 6 31 37 46 46 44 38 28 21 21 21 21 23 25 23 23 26 32 23 16 10 13 16 18 20 24 29 28 26 25 27 26
14 13 11 2 9 6 8 7 11 7 21 37 22 17 5 2 5 17 49 47 44 41 46 39 30 22 21 22 24 25 26 25 24 25 29 22 14 10 15 18 19 21 26 28 29 28 27 27 28
13 8 2 8 7 7 8 6 10 7 27 8 8 10 7 6 8 44 38 55 48 43 40 34 26 23 23 23 23 25 25 25 23 24 28 21 13 13 15 17 19 22 25 24 25 26 25 24 25
9 5 8 8 5 6 8 10 9 12 5 6 17 11 8 5 19 43 46 54 50 43 38 33 28 24 22 22 22 21 22 22 22 21 22 21 14 12 14 16 17 21 22 27 25 26 24 25 29
11 4 7 6 5 6 4 17 20 5 8 9 10 8 7 24 15 33 45 53 50 45 37 34 29 24 20 18 18 19 19 19 20 19 18 13 11 10 10 13 14 17 23 23 26 25 24 21 25
5 3 8 4 6 6 2 20 12 7 8 9 9 15 11 24 22 32 39 46 47 43 37 33 30 26 22 19 18 17 18 17 17 16 15 12 10 9 9 11 12 16 20 19 22 24 24 19 21
11 7 10 7 7 3 10 18 11 13 10 7 21 9 8 31 26 28 35 41 42 41 37 35 32 30 24 21 18 16 15 15 14 13 12 10 8 7 7 9 11 15 16 18 18 16 14 14 18
6 10 8 5 10 7 12 20 17 20 11 11 19 8 8 34 38 30 35 33 38 39 37 40 38 36 33 28 21 17 16 15 13 12 9 8 6 5 6 8 10 12 14 15 14 13 13 14 14
6 9 5 9 10 6 21 7 12 10 14 15 17 10 8 40 43 45 40 38 38 37 38 39 39 39 37 32 30 26 22 19 17 15 11 7 5 5 6 8 10 12 13 14 13 11 10 9 9
8 8 17 6 7 8 15 7 18 10 13 13 16 17 16 44 52 55 57 54 48 43 43 39 38 40 40 37 33 29 27 25 22 19 15 11 10 8 9 11 13 13 14 14 13 13 11 9 7
8 9 11 7 6 12 13 3 13 14 6 22 32 29 30 47 55 59 61 58 52 49 44 45 41 39 44 43 40 38 35 32 28 25 21 18 15 13 13 14 15 14 13 12 12 12 11 9 9
9 5 11 12 8 8 11 6 6 23 16 9 29 28 36 47 56 60 62 62 58 57 52 45 43 44 45 48 48 45 41 37 34 30 28 25 21 18 16 17 16 15 12 13 13 12 10 10 10
6 9 9 12 8 5 8 7 12 24 32 15 11 32 38 44 50 55 58 60 59 58 57 55 47 48 46 51 52 49 45 41 37 37 34 31 28 22 20 22 21 20 18 17 15 12 10 10 10
12 11 7 10 8 6 5 6 3 3 16 31 27 25 34 44 46 52 61 62 65 63 61 59 58 53 48 49 53 51 46 42 42 43 41 38 35 31 29 27 27 27 26 24 21 16 12 11 12
12 7 6 8 9 6 6 8 16 20 17 13 34 34 38 46 49 54 51 56 58 63 64 65 64 61 59 52 50 47 51 51 52 48 45 44 44 40 36 36 34 32 32 32 31 26 23 21 20
8 9 4 5 8 3 8 15 8 2 10 18 23 26 36 45 50 52 56 57 57 63 69 67 69 71 69 62 57 57 58 58 58 56 55 53 52 47 45 44 41 41 41 41 40 35 27 32 32
12 6 6 10 13 4 5 11 8 6 5 11 11 20 33 40 49 53 56 62 60 61 64 70 73 75 76 70 66 65 61 62 63 63 60 62 59 56 52 46 47 50 52 51 49 47 46 41 40
11 6 5 7 8 5 6 18 18 24 29 32 34 31 39 47 51 47 47 50 57 59 63 66 72 73 77 76 72 73 71 70 65 68 69 66 64 63 62 56 57 53 66 59 59 57 56 52 48
11 7 8 4 1 5 10 12 23 47 40 46 48 50 52 57 56 57 53 52 53 59 65 65 69 73 78 84 81 83 82 80 77 74 71 69 68 68 68 65 64 65 71 62 65 67 64 61 59
5 6 3 4 2 5 6 18 20 30 40 52 60 59 48 39 37 39 46 52 54 51 54 64 69 67 72 80 81 85 82 85 82 78 77 73 76 73 73 72 69 74 70 81 80 73 74 70 71
7 9 7 10 3 6 8 16 13 11 20 30 35 32 38 41 39 24 18 18 33 47 51 56 60 69 72 73 81 87 93 94 93 92 89 82 73 78 80 79 79 74 76 77 88 80 80 83 82
10 13 11 7 6 6 4 9 12 10 21 14 37 20 17 15 15 16 12 6 10 20 34 40 50 64 74 77 83 83 84 90 85 90 90 88 81 77 85 85 86 85 83 84 83 90 92 96 83
11 9 8 6 7 6 7 3 14 7 12 11 24 24 26 29 25 21 17 15 11 9 11 23 35 46 59 75 82 83 84 85 88 87 88 86 83 81 85 84 91 93 89 84 88 83 93 103 99
17 12 13 9 6 4 11 10 11 6 5 6 11 21 24 27 28 26 22 20 20 22 23 26 26 25 30 45 64 75 80 81 83 82 83 82 79 74 74 81 89 92 90 93 90 91 92 97 99
7 12 3 6 5 10 2 6 17 10 3 5 9 23 32 41 49 53 53 49 40 33 29 25 20 18 19 25 37 51 62 70 75 77 78 75 77 76 72 70 79 87 91 95 97 101 99 98 102
13 14 11 14 8 6 5 10 10 5 6 14 20 27 42 49 46 47 48 50 51 55 53 40 30 22 19 23 27 32 42 53 61 67 70 72 76 73 67 66 68 76 85 92 93 96 100 101 104
11 8 10 13 6 7 7 11 12 6 13 19 37 52 50 48 48 37 39 44 45 45 49 50 50 39 26 20 21 25 32 41 48 52 55 60 63 62 62 62 63 67 72 78 86 94 100 103 106
9 15 6 5 5 6 6 6 10 13 15 10 28 38 43 48 45 36 29 35 34 35 38 38 39 39 39 28 23 20 24 27 31 35 41 47 51 53 55 58 61 64 68 74 80 89 95 101 105
5 6 7 9 9 11 3 10 13 15 15 16 24 33 34 35 34 37 34 30 30 32 34 32 29 25 25 26 26 23 26 36 39 43 46 48 49 52 56 58 60 64 68 70 76 82 86 93 94
5 14 13 10 9 4 6 11 4 18 25 25 12 19 26 23 22 20 21 31 34 39 38 37 31 24 22 24 27 30 36 42 45 46 50 54 58 58 62 65 70 72 72 72 75 78 79 83 85
Wind_Direction_850mb
279 286 308 321 49 65 339 249 238 169 105 139 156 159 172 101 157 204 146 155 159 160 161 153 154 158 126 120 121 116 110 115 117 120 121 118 121 103 73 71 85 95 102 103 99 97 94 95 93
248 261 306 15 84 75 266 258 185 202 127 120 107 114 82 116 146 150 149 156 157 160 160 157 160 139 129 129 119 115 115 117 118 128 134 127 130 106 80 82 97 105 110 106 100 97 95 83 81
222 236 244 91 110 168 197 217 199 140 142 150 117 81 101 153 180 160 156 157 159 163 168 164 159 151 145 130 127 120 118 117 120 127 135 138 133 108 93 93 108 115 115 108 107 102 95 84 82
195 176 67 86 156 238 211 187 196 138 116 160 140 83 109 169 158 162 159 164 164 166 168 171 170 163 148 137 126 119 114 113 114 116 130 145 126 106 92 99 116 124 122 111 116 112 97 90 92
182 144 64 67 297 288 250 158 164 131 139 146 156 168 107 139 154 170 167 169 169 172 173 175 176 172 155 146 136 132 127 122 121 120 123 129 113 108 97 106 123 136 127 131 121 116 108 94 103
146 115 67 140 247 326 269 164 162 144 154 150 119 133 143 170 166 168 171 172 177 182 179 180 183 180 176 167 157 148 142 137 132 124 121 117 119 120 119 123 136 145 148 140 145 140 130 122 119
142 89 167 165 206 195 208 184 183 161 155 197 150 130 186 190 178 171 174 177 181 193 194 191 190 189 190 186 176 167 161 153 148 140 127 112 114 122 131 142 153 158 159 153 159 154 147 132 131
160 95 112 199 194 218 177 165 179 167 189 161 179 193 201 185 182 177 177 180 188 194 200 197 196 197 198 196 191 188 186 180 175 164 154 133 119 130 157 167 168 174 172 172 176 174 158 151 150
145 68 153 198 156 217 158 147 166 190 158 185 197 245 247 179 180 178 183 186 192 200 203 203 205 204 204 203 203 198 196 194 193 193 186 174 167 169 178 178 180 185 182 185 182 182 172 171 174
96 115 203 206 186 180 168 152 160 166 168 211 212 216 193 184 185 185 187 190 201 205 204 210 211 213 210 211 213 211 210 209 208 207 206 201 198 194 191 189 185 189 185 191 188 190 190 192 201
135 178 191 181 137 154 157 193 177 155 241 219 218 213 191 189 193 197 198 203 205 207 214 217 219 220 222 220 219 219 218 217 214 215 216 215 212 209 205 200 196 195 200 203 196 194 196 205 217
122 183 167 158 146 146 159 160 225 208 213 246 240 231 207 197 200 205 207 211 212 213 218 221 225 227 232 229 228 227 225 223 222 224 225 225 222 219 217 205 206 207 210 206 200 199 205 216 224
143 177 159 157 179 188 189 214 238 245 236 224 230 214 216 214 213 214 216 218 221 220 221 224 228 228 231 229 231 232 232 233 234 233 234 233 228 230 222 213 212 213 210 211 209 212 222 223 235
183 147 152 169 173 206 189 237 253 289 233 222 229 223 223 226 228 222 219 223 224 226 227 225 228 233 235 236 234 235 236 239 241 243 242 241 234 232 229 226 221 219 216 213 212 220 232 245 249
123 105 8 216 178 200 171 262 236 255 261 236 234 237 236 235 233 235 236 231 230 230 230 229 231 234 237 242 239 234 231 233 235 244 246 245 240 236 235 234 232 230 226 221 219 225 228 242 254
66 47 117 301 146 155 127 266 272 285 252 246 237 240 239 238 241 242 240 241 239 235 235 233 234 235 238 243 241 236 236 237 237 242 247 244 240 240 240 240 240 239 234 233 231 233 245 244 243
15 196 183 305 197 119 127 268 263 191 5 307 273 261 255 254 250 246 246 243 242 241 240 239 236 238 239 243 243 247 242 239 243 243 247 251 246 243 243 246 246 243 240 237 235 239 242 248 248
195 204 217 240 215 148 160 259 284 266 288 284 283 268 258 257 259 256 255 252 247 244 243 242 242 241 239 242 247 245 245 244 243 243 245 251 254 248 247 247 248 247 243 244 240 242 244 250 247
148 156 173 235 165 148 237 267 278 285 288 279 275 274 270 269 273 267 260 256 252 247 244 242 240 241 241 240 240 241 243 244 245 246 250 248 252 256 250 250 251 247 248 261 244 247 242 244 242
135 122 249 309 8 156 348 277 260 269 267 269 276 280 282 285 290 278 263 253 251 252 250 246 244 242 242 243 245 246 247 247 250 254 254 250 251 251 253 253 255 251 251 248 248 247 244 243 244
200 171 191 210 37 31 359 305 319 292 265 273 269 285 296 291 294 299 293 275 252 252 253 252 253 250 247 246 246 246 245 248 247 249 251 252 253 253 254 255 254 253 257 258 256 260 245 254 247
173 201 154 162 97 226 360 278 303 299 295 310 312 313 353 39 46 36 19 341 296 269 257 257 255 255 253 249 246 248 251 251 258 257 256 257 254 252 257 256 259 256 257 257 261 259 257 254 255
198 115 131 94 98 84 316 54 272 341 315 332 28 64 63 56 48 44 38 38 22 358 284 267 260 258 255 252 251 251 252 257 258 260 260 260 258 257 255 257 259 256 257 262 260 260 260 256 253
143 84 54 56 89 307 225 156 284 223 188 1 8 38 45 46 43 34 15 350 339 329 313 299 292 283 270 259 255 255 255 257 262 265 266 267 267 264 260 258 258 260 264 262 264 264 265 263 262
91 87 359 347 2 223 94 104 243 262 299 294 337 61 64 64 66 61 52 44 33 18 6 353 342 321 295 276 265 262 261 261 263 267 270 272 271 269 269 263 258 260 263 265 266 266 267 265 265
186 158 160 196 197 250 111 227 243 121 92 88 95 74 81 58 45 46 47 43 40 40 36 26 4 341 309 286 275 266 263 264 267 269 271 271 271 272 273 269 264 261 260 261 265 267 269 268 268
190 187 157 106 29 62 222 286 326 91 80 80 84 70 54 41 32 33 44 39 33 31 28 27 25 15 352 324 302 291 281 277 276 277 275 272 271 271 271 268 264 262 261 262 262 262 263 265 267
158 156 86 8 146 252 272 254 227 149 136 119 68 52 26 16 12 16 29 21 23 22 17 15 14 12 11 16 8 357 353 333 312 297 286 280 277 275 272 269 265 263 260 258 258 260 264 265 266
136 171 61 122 153 173 186 252 228 134 147 114 83 35 23 28 26 19 14 19 359 348 346 349 349 351 345 330 319 310 323 327 323 314 308 302 294 289 282 277 271 267 264 261 261 261 262 264 268
181 185 154 147 221 232 153 256 58 133 135 105 86 28 24 22 15 7 347 336 335 342 345 344 339 328 316 307 302 300 306 307 304 302 303 302 301 294 287 282 278 274 271 269 267 267 266 266 269